Regional Weather Roundup
Issued by NWS

Home | Current Version | Previous Version | Graphics & Text | Print | Product List | Glossary On
Versions: 1 2 3 4 5 6 7 8 9 10 11 12 13 14 15 16 17 18 19 20 21 22 23 24 25 26 27 28 29 30 31 32 33 34 35 36 37 38 39 40 41 42 43 44 45 46 47 48 49 50
000
ASUS43 KMPX 280310
RWRMN
WEATHER ROUNDUP FOR MINNESOTA
NATIONAL WEATHER SERVICE TWIN CITIES/CHANHASSEN MN
900 PM CST TUE JAN 27 2015


NOTE: "FAIR" INDICATES FEW OR NO CLOUDS BELOW 12,000 FEET WITH NO
SIGNIFICANT WEATHER AND/OR OBSTRUCTIONS TO VISIBILITY. N/A MEANS
CURRENT SKY AND/OR WEATHER CONDITIONS ARE NOT AVAILABLE.

MNZ060>063-068>070-280400-
   Twin Cities Metro

CITY           SKY/WX    TMP DP  RH WIND       PRES   REMARKS
TWIN CITIES    CLOUDY    31  25  78 SE10      30.14S WCI  22
ST PAUL        CLOUDY    31  26  82 SE12      30.16S WCI  22
CRYSTAL        CLOUDY    32  26  78 SE9       30.12S WCI  24
BLAINE         CLOUDY    34  28  80 SE7       30.13S WCI  28
LAKEVILLE      CLOUDY    30  27  86 SE8       30.13S WCI  23
EDEN PRAIRIE   CLOUDY    32  26  78 S9        30.12S WCI  24
SOUTH ST PAUL  CLOUDY    31  26  80 SE5       30.14F WCI  27
LAKE ELMO      CLOUDY    30  27  86 S9        30.16S WCI  22
$$
MNZ001>005-007-008-013>017-022>024-027-028-280400-
   Northwest Minnesota

CITY           SKY/WX    TMP DP  RH WIND       PRES   REMARKS
BEMIDJI        CLOUDY    29  26  88 S12       29.98F WCI  19
HALLOCK        CLOUDY    32  30  93 S12       29.93S WCI  23
ROSEAU         CLEAR     30  25  80 S8        29.95S WCI  23
WARROAD        PTCLDY    30  27  86 SE8       29.95F WCI  23
THIEF RVR FALL MOCLDY    30  27  86 SE6       29.95S WCI  24
CROOKSTON      CLOUDY    32  30  93 S15       29.95F WCI  22
FOSSTON        PTCLDY    28  25  86 SE10      29.95F WCI  19
DETROIT LAKES  CLOUDY    32  30  93 S18       29.97F WCI  20
MOORHEAD       CLOUDY    34  34 100 S20G25    29.96F WCI  22
PARK RAPIDS    CLOUDY    31  26  82 SE16      30.00F WCI  20
MAHNOMEN       FAIR      30  27  89 S9        29.95F WCI  22
$$
MNZ006-009>011-018-025>026-280400-
   North Central Minnesota

CITY           SKY/WX    TMP DP  RH WIND       PRES   REMARKS
BAUDETTE       MOCLDY    31  24  75 SE6       29.97F WCI  25
FLAG ISLAND    CLOUDY    30  27  86 S14       29.96S WCI  20
INTL FALLS     CLOUDY    29  26  89 S6        30.01F WCI  23
WASKISH        PTCLDY    30  27  86 SE9       29.99F WCI  22
BIG FORK       PTCLDY    30  25  80 SE8       30.03F WCI  23
LONGVILLE      CLOUDY    30  27  86 S9        30.03F WCI  22
GRAND RAPIDS   CLOUDY    28  23  80 SE12      30.05F WCI  18
CRANE LAKE     CLOUDY    27  25  93 CALM      30.07F
ORR            CLOUDY    27  23  86 S7        30.03F WCI  19
COOK           CLOUDY    27  23  86 S6        30.06F WCI  20
WALKER         CLOUDY    30  26  83 S10       30.01S WCI  21
$$
MNZ012-019>021-037-280400-
   Northeast Minnesota

CITY           SKY/WX    TMP DP  RH WIND       PRES   REMARKS
DULUTH         CLOUDY    27  22  81 S7        30.09F WCI  19
ELY            CLOUDY    27  23  86 S6        30.08S WCI  20
HIBBING        CLOUDY    28  21  75 S7        30.07F WCI  21
EVELETH        CLOUDY    28  25  86 S7        30.09F WCI  21
DULUTH HARBOR  CLOUDY    30  25  80 CALM      30.15F
TWO HARBORS    CLOUDY    30  25  80 S3        30.10F
SILVER BAY     CLOUDY    28  25  86 CALM      30.10F
GRAND MARAIS     N/A     32  24  72 SW13      30.15S WCI  22
G MARAIS ARPRT CLOUDY    23  19  86 S6        30.09S WCI  16
$$
MNZ029>031-032-039>041-046>048-054>057-064-280400-
   West Central Minnesota

CITY           SKY/WX    TMP DP  RH WIND       PRES   REMARKS
FERGUS FALLS   CLOUDY    32  30  93 SE17      30.01F WCI  21
WHEATON        CLOUDY    30  30 100 SE18      29.99S WCI  18
MORRIS         CLOUDY    34  32  93 SE17G24   29.98F FOG     WCI  23
ALEXANDRIA     CLOUDY    31  28  89 S16       30.02F WCI  20
ELBOW LAKE     CLOUDY    31  30  94 SE17G25   29.99S WCI  20
WADENA         CLOUDY    30  27  86 SE12G18   30.01F WCI  21
GLENWOOD       CLOUDY    30  30 100 SE15      30.03F WCI  19
APPLETON       PTCLDY    36  32  87 SE12      29.99F
BENSON         CLOUDY    34  30  86 S15G22    30.01F WCI  24
ORTONVILLE     CLEAR     32  30  93 SE15      29.96F WCI  22
MADISON        CLEAR     37  36  93 SE13      29.98F
WILLMAR        CLOUDY    34  30  86 SE16G22   30.06S WCI  23
$$
MNZ033>034-036-042>043-049>051-058-059-280400-
   Central Minnesota

CITY           SKY/WX    TMP DP  RH WIND       PRES   REMARKS
ST CLOUD       CLOUDY    31  26  82 SE14      30.08F WCI  21
SAUK CENTRE    CLOUDY    32  29  90 SE16      30.05F WCI  21
PAYNESVILLE    CLOUDY    31  28  91 E9G18     30.06S WCI  22
AITKIN         CLOUDY    32  25  74 S8G16     30.06F WCI  25
PINE RIVER     CLOUDY    30  27  86 S10       30.08S WCI  21
BRAINERD       CLOUDY    30  25  81 S10       30.06F WCI  21
STAPLES        CLOUDY    30  27  86 S9        30.04S WCI  22
LONG PRAIRIE   CLOUDY    32  28  86 SE16      30.05S WCI  21
LITTLE FALLS   CLOUDY    32  27  80 SE9       30.08R WCI  24
LITCHFIELD     CLOUDY    34  32  93 SE10      30.08S WCI  26
BUFFALO        CLOUDY    32  27  82 SE8       30.11F WCI  25
MAPLE LAKE     CLOUDY    32  30  90 SE10      30.10F WCI  24
$$
MNZ037-044-045-052-053-280400-
   East Central Minnesota

CITY           SKY/WX    TMP DP  RH WIND       PRES   REMARKS
PRINCETON      CLOUDY    32  27  80 SE10      30.11S WCI  24
MORA           CLOUDY    32  27  80 SE5       30.13F WCI  27
CAMBRIDGE      CLOUDY    34  25  69 SE7       30.10F WCI  28
RUSH CITY      CLOUDY    29  24  82 SE7       30.13F WCI  22
MOOSE LAKE     MOCLDY    28  23  80 CALM      30.09S
HINCKLEY       CLOUDY    30  27  86 SE5       30.13S WCI  25
CLOQUET        CLOUDY    27  23  86 SE5       30.10F WCI  21
MCGREGOR       CLOUDY    30  27  86 S10       30.09S WCI  21
$$
MNZ071>073-080-081-089-090-097-098-280400-
   Southwest Minnesota

CITY           SKY/WX    TMP DP  RH WIND       PRES   REMARKS
MONTEVIDEO     CLEAR     34  34 100 S14       30.01F WCI  24
GRANITE FALLS  PTCLDY    34  32  92 SE13      30.03S WCI  25
CANBY          CLEAR     33  32  97 SE8       29.98S WCI  26
MARSHALL       CLEAR     34  28  80 S15       30.00F WCI  24
REDWOOD FALLS  PTCLDY    34  31  88 SE14      30.04F WCI  25
OLIVIA         CLOUDY    32  32 100 SE13G18   30.04S WCI  22
PIPESTONE      CLEAR     36  34  93 S15       29.96F
WINDOM         CLEAR     34  32  93 SE13      30.03S WCI  25
WORTHINGTON    CLEAR     36  30  80 S14       30.02S
JACKSON        CLEAR     34  32  93 SE15      30.05S WCI  24
TRACY          CLEAR     35  33  92 S13       30.00F WCI  26
SLAYTON        CLEAR     33  32  96 SE13      30.00S WCI  24
$$
MNZ065>067-074>077-082>085-091>093-280400-
   South Central Minnesota

CITY           SKY/WX    TMP DP  RH WIND       PRES   REMARKS
MANKATO        CLOUDY    34  27  75 SE14G23   30.10S WCI  24
NEW ULM        CLEAR     32  28  86 SE14      30.07F WCI  22
ST JAMES       CLEAR     34  30  86 SE13      30.08F WCI  25
FAIRMONT       PTCLDY    32  27  80 SE14      30.07F WCI  22
GLENCOE        CLOUDY    33  31  91 SE10G16   30.10R WCI  25
FARIBAULT      CLOUDY    32  28  86 S8        30.13S WCI  25
OWATONNA       CLOUDY    30  27  86 SE14      30.13R WCI  20
WASECA         CLOUDY    32  28  86 S15       30.13R WCI  22
ALBERT LEA     CLOUDY    30  28  93 S12G17    30.12S WCI  21
$$
MNZ078>079-086>088-094>096-280400-
   Southeast Minnesota

CITY           SKY/WX    TMP DP  RH WIND       PRES   REMARKS
ROCHESTER      CLOUDY    28  24  85 S12       30.15R WCI  18
RED WING       CLOUDY    30  23  74 S7        30.17R WCI  23
STANTON        CLOUDY    32  27  82 S8        30.13F WCI  25
DODGE CENTER   CLOUDY    30  28  93 S13       30.13S WCI  20
WINONA         CLOUDY    30  25  80 SE5       30.19F WCI  25
AUSTIN         CLOUDY    28  27  93 S12       30.13S WCI  18
PRESTON        CLOUDY    27  23  85 SE9       30.16S WCI  18
$$
ABBREVIATIONS USED IN REMARKS
   TC - TEMPERATURES IN CELSIUS
  WCI - WIND CHILL INDEX
   HX - HEAT INDEX
  VSB - VISIBILITY
$$



USA.gov is the U.S. government's official web portal to all federal, state and local government web resources and services.